User: anonymous   Login
Location: Mount Cross
(36.6390°N, 79.4878°W)
Time: 09:47:47
(UTC+00:00)
Language:

Courier 1B Rocket - Orbit

View from above orbital plane
View from above orbital plane
View from above satellite
View from above satellite

Ground track
Ground track

The orbit data is extracted from the following two-line orbital elements,

1 00059U 60013B   23087.91310851  .00000135  00000-0  59462-4 0  9991
2 00059  28.2493  47.0205 0189241 161.0153 199.7559 13.53024784 83737
Epoch (UTC): 28 March 2023 21:54:52
Eccentricity: 0.0189241
inclination: 28.2493°
perigee height: 920 km
apogee height: 1202 km
right ascension of ascending node: 47.0205°
argument of perigee: 161.0153°
revolutions per day: 13.53024784
mean anomaly at epoch: 199.7559°
orbit number at epoch: 8373

The dashed part of the orbit path shows where the satellite is in the earth's shadow,  

DLR